Starlink 3320

operational
NORAD ID: 50839 Int'l Des: 2022-001 Owner: SPXS Country: US Constellation: starlink
LEOCIRCULAR

Starlink 3320について

説明を読み込み中...

リアルタイム位置

3D地球を読み込み中...

次回通過

高度履歴

Altitude vs Time

uPlot chart will show altitude changes over time

軌道要素

1 50839U 22001AN 25353.93035641 .00000225 00000-0 32214-4 0 9994
2 50839 53.2157 177.1713 0001371 92.2783 267.8367 15.08840381218211
Epoch: Dec 19, 2025 • Age: 11 hours

現在のステータス

高度 540.5 km
速度 7.59 km/s
衛星直下点 1.56°N, 54.96°W
打ち上げ日 Jan 6, 2022
運用期間 3.9 years
タイプ internet

技術仕様

分類 Payload
質量 297.00 kg
乾燥質量 275.00 kg
総質量 297.00 kg
長さ 0.20 m
直径 2.80 m
スパン 9.00 m
形状 Box + pan
製造者 SPXS
バスタイプ Starlink
フェーズステータス In Orbit
所有者/国 SPXS/US

大規模コンステレーション

Loading constellations...